Location: North Bay
(46.3091°N, 79.4608°W)
Time: 23:42:40
(UTC-05:00)

ISS - Pass Details

Date: 28 October 2019
Orbit: 412 x 421 km, 51.6° (Epoch: 13 November)

Event Time Altitude Azimuth Distance (km) Brightness Sun altitude
Exits shadow 05:22:47 22° 117° (ESE) 975 -1.4 -26.4°
Drops below altitude 10° 05:24:48 10° 83° (E) 1,506 0.1 -26.1°
Sets 05:27:09 0° 69° (ENE) 2,373 1.3 -25.7°
